Flag for U.S.A. Weather past 2 weeks in Tucson, Arizona, U.S.A.

Now
93 °F

Sunny.


Feels Like: 93 °F
Forecast: 82 / 99 °F
Wind: 1 mph from North

Location: Davis-Monthan Air Force Base

Current Time: Jul 25, 2014 at 12:13:46 PM

Latest Report: Jul 25, 2014 at 10:58 AM


Visibility: 10 mi

Pressure: 29.86 "Hg

Humidity: 34%

Dew point: 61 °F

Location of TucsonLocation

Historic Weather in Tucson — Graph

°F

Tucson temperature yesterday

Maximum temperature yesterday: 106 °F (at 3:02 PM)
Minimum temperature yesterday: 80 °F (at 5:58 AM)
Average temperature yesterday: 95 °F

Past Weeks' High & Low Weather Summary

 TemperatureHumidityPressure
High106 °F (Jul 24, 3:02 PM)97% (Jul 14, 1:58 AM)30.13 "Hg (Jul 14, 1:58 AM)
Low71 °F (Jul 15, 9:58 AM)11% (Jul 24, 3:58 PM)29.69 "Hg (Jul 24, 4:58 PM)
Average86 °F39%29.87 "Hg
* Reported Jul 10 10:58 AM — Jul 25 10:58 AM, Tucson, Weather by CustomWeather, © 2014

Note: Actual official high and low records may vary slightly from our data, if they occured in-between our weather recording intervals... More about our weather records

Advertising

Tucson weather history for previous 24 hours

 ConditionsComfort  
Time TempWeatherWind HumidityBarometerVisibility
10:58 AM
Jul 25
93 °FSunny.1 mph34%29.86 "Hg10 mi
9:58 AM90 °FSunny.2 mph39%29.88 "Hg10 mi
8:58 AM89 °FSunny.5 mph43%29.89 "Hg8 mi
7:58 AM86 °FSunny.7 mph48%29.89 "Hg7 mi
6:58 AM83 °FSunny.8 mph56%29.86 "Hg8 mi
5:58 AM81 °FSunny.6 mph57%29.86 "Hg7 mi
4:58 AM82 °FClear.6 mph56%29.84 "Hg7 mi
3:58 AM83 °FClear.6 mph53%29.84 "Hg8 mi
2:58 AM84 °FClear.3 mph52%29.85 "Hg8 mi
1:58 AM85 °FClear.7 mph48%29.85 "Hg10 mi
12:58 AM86 °FClear.8 mph45%30.01 "Hg10 mi
11:58 PM
Jul 24
87 °FClear.7 mph42%30.01 "Hg10 mi
10:58 PM89 °FClear.10 mph41%30.00 "Hg10 mi
9:58 PM90 °FClear.12 mph36%29.99 "Hg10 mi
8:58 PM93 °FPassing clouds.5 mph31%29.79 "Hg10 mi
7:58 PM95 °FPassing clouds.16 mph30%29.74 "Hg10 mi
6:58 PM103 °FSunny.7 mph13%29.70 "Hg10 mi
5:58 PM103 °FSunny.7 mph12%29.70 "Hg10 mi
4:58 PM105 °FSunny.9 mph12%29.69 "Hg10 mi
3:58 PM105 °FSunny.8 mph11%29.71 "Hg10 mi
3:02 PM106 °FSunny.15 mph12%29.89 "Hg10 mi
2:58 PM104 °FSunny.13 mph12%29.74 "Hg10 mi
1:59 PM104 °FSunny.17 mph12%29.93 "Hg10 mi
1:58 PM104 °FSunny.16 mph12%29.77 "Hg10 mi
12:58 PM103 °FSunny.14 mph12%29.78 "Hg10 mi
Weather by CustomWeather, © 2014

See weather overviewHow to use our weather pages